Flight Track Log - Related Links

Times and Time Zones

All times are in EDT time to prevent confusion due to time zone crossing. See the N498QS flight status page for this flight to view local times or setup timezone preferences in your user account.


Time Position Orientation Groundspeed Altitude Reporting Facility
EDT Latitude Longitude Course Direction KTS MPH feet Rate Location/Type
Mon 08:31:33 AM 41.1167 -73.7500 45° Northeast 170 196 3,200  Level New York TRACON
Mon 08:33:42 AM 41.2000 -73.6375 45° Northeast 191 220 8,500 2,627 Climbing Boston Center
Mon 08:34:54 AM 41.2492 -73.5003 64° Northeast 297 342 12,000 2,571 Climbing Boston Center
Mon 08:35:55 AM 41.2875 -73.3958 64° Northeast 344 396 14,200 1,500 Climbing Boston Center
Mon 08:36:54 AM 41.3408 -73.2556 63° Northeast 360 414 15,000 403 Climbing Boston Center
Mon 08:37:54 AM 41.3833 -73.1289 66° East 365 420 15,000 450 Level Boston Center
Mon 08:38:54 AM 41.4050 -72.9936 78° East 371 427 15,900 1,000 Climbing Boston Center
Mon 08:39:54 AM 41.4286 -72.8497 78° East 376 433 17,000 550 Climbing Boston Center
Mon 08:40:54 AM 41.4497 -72.7006 79° East 392 451 17,000  Level Boston Center
Mon 08:41:54 AM 41.4731 -72.5592 78° East 392 451 17,000  Level Boston Center
Mon 08:42:54 AM 41.4939 -72.4122 79° East 392 451 17,000  Level Boston Center
Mon 08:43:54 AM 41.5125 -72.2986 78° East 392 451 17,000  Level Boston Center
Mon 08:44:54 AM 41.5600 -72.1322 69° East 393 452 17,000  Level Boston Center
Mon 08:45:54 AM 41.5972 -72.0097 68° East 398 458 17,000  Level Boston Center
Mon 08:46:54 AM 41.6425 -71.8567 68° East 398 458 17,000 -150 Level Boston Center
Mon 08:47:54 AM 41.6792 -71.7314 69° East 398 458 16,700 -450 Descending Boston Center
Mon 08:48:54 AM 41.7200 -71.5889 69° East 392 451 16,100 -1,388 Descending Boston Center
Mon 08:49:55 AM 41.7644 -71.4408 68° East 392 451 13,900 -1,700 Descending Boston Center
Mon 08:50:54 AM 41.7989 -71.3206 69° East 386 444 12,700 -1,311 Descending Boston Center
Mon 08:51:54 AM 41.8411 -71.1778 68° East 372 428 11,300 -1,140 Descending Boston Center
Mon 08:52:55 AM 41.8775 -71.0767 64° Northeast 350 403 10,400 -1,450 Descending Boston Center
Mon 08:53:54 AM 41.9239 -70.9669 60° Northeast 312 359 8,400 -1,210 Descending Boston Center
Mon 08:54:54 AM 41.9644 -70.8739 60° Northeast 304 350 8,000 -200 Descending Boston Center
Mon 08:55:54 AM 42.0069 -70.7806 58° Northeast 297 342 8,000  Level Boston Center
Mon 08:56:54 AM 42.0597 -70.6925 51° Northeast 297 342 8,000 -298 Level Boston Center
Mon 08:57:55 AM 42.1258 -70.6486 26° Northeast 265 305 7,400 -1,190 Descending Boston Center
Mon 08:58:55 AM 42.2031 -70.6575 355° North 250 288 5,600 -1,765 Descending Boston Center
Mon 08:59:54 AM 42.2781 -70.6639 356° North 256 295 3,900 -1,400 Descending Boston Center
Mon 09:00:55 AM 42.3453 -70.6900 344° North 256 295 2,800 -1,041 Descending Boston Center
Mon 09:01:55 AM 42.3839 -70.7619 306° West 233 268 1,800 -600 Descending Boston Center
Mon 09:02:55 AM 42.3892 -70.8378 275° West 199 229 1,600 -200 Descending Boston Center
Mon 09:03:55 AM 42.3794 -70.8914 256° West 175 201 1,400 -500 Descending Boston Center
Mon 09:04:55 AM 42.3678 -70.9508 255° West 158 182 600 -710 Descending Boston Center
Mon 09:05:28 AM 42.3667 -70.9667 265° West 135 155 300 -545 Descending KA90
Mon 09:07:00 AM 42.3500 -71.0000 North  Level FlightAware Approximate

Login

Don't have an account? Register now (free) for customized features, flight alerts, and more!